Weather History for Anoka County, MN

Change the Weather History Date:

Monday, March 4, 2013

  Actual Average Record
Temperature  
Mean Temperature 26 °F -  
Max Temperature 28 °F 28 °F 42 °F (2005)
Min Temperature 24 °F 13 °F 1 °F (2003)
Degree Days  
Heating Degree Days 39    
Moisture  
Dew Point 17 °F    
Average Humidity 70    
Maximum Humidity 100    
Minimum Humidity 43    
Precipitation  
Precipitation 0.00 in - - ()
Sea Level Pressure  
Sea Level Pressure 29.98 in    
Wind  
Wind Speed 7 mph (East)    
Max Wind Speed 15 mph    
Max Gust Speed 20 mph    
Visibility 7 miles    
Events Snow    
Averages and records for this station are not official NWS values.
T = Trace of Precipitation, MM = Missing Value Source: NWS Daily Summary

Daily Weather History Graph

Daily Weather History Graph

Search for Another Location

Airport:

Trip Planner

Search our weather history database for the weather conditions in past years. The results will help you decide how hot, cold, wet, or windy it might be!

Date:

Astronomy

Mar. 04, 2013 Rise Set
Actual Time 6:45 AM CST 6:04 PM CST
Civil Twilight 6:15 AM CST 6:34 PM CST
Nautical Twilight 5:41 AM CST 7:08 PM CST
Astronomical Twilight 5:07 AM CST 7:42 PM CST
Moon 1:06 AM CST (3/4) 10:35 AM CST (3/4)
Length of Visible Light 12h 18m
Length of Day
11h 19m
Waning Gibbous, 52% of the Moon is Illuminated
Mar 4
Waning Gibbous
Mar 4
Last Quarter
Mar 11
New
Mar 19
First Quarter
Mar 27
Full

Hourly Weather History & Observations

Time (CST) Temp. Windchill Dew Point Humidity Pressure Visibility Wind Dir Wind Speed Gust Speed Precip Events Conditions
12:14 AM 28.4 °F 20.4 °F 8.6 °F 43% 29.99 in 10.0 mi ESE 8.1 mph - N/A   Overcast
12:33 AM 28.4 °F 22.2 °F 8.6 °F 43% 29.99 in 10.0 mi ESE 5.8 mph - N/A   Overcast
12:54 AM 28.4 °F 23.3 °F 10.4 °F 47% 30.00 in 10.0 mi East 4.6 mph - N/A   Overcast
1:13 AM 28.4 °F 23.3 °F 10.4 °F 47% 29.99 in 10.0 mi East 4.6 mph - N/A   Overcast
1:34 AM 26.6 °F 19.1 °F 15.8 °F 64% 29.99 in 10.0 mi East 6.9 mph - N/A   Overcast
1:54 AM 26.6 °F 20.0 °F 10.4 °F 51% 29.99 in 10.0 mi East 5.8 mph - N/A   Overcast
2:14 AM 26.6 °F 21.2 °F 10.4 °F 51% 29.98 in 10.0 mi East 4.6 mph - N/A   Overcast
2:34 AM 26.6 °F 19.1 °F 14.0 °F 59% 29.98 in 10.0 mi East 6.9 mph - N/A   Overcast
2:54 AM 26.6 °F 20.0 °F 12.2 °F 55% 29.97 in 10.0 mi East 5.8 mph - N/A   Overcast
3:14 AM 26.6 °F 20.0 °F 10.4 °F 51% 29.96 in 10.0 mi East 5.8 mph - N/A   Overcast
3:34 AM 26.6 °F 20.0 °F 10.4 °F 51% 29.96 in 10.0 mi East 5.8 mph - N/A   Overcast
3:54 AM 26.6 °F 18.2 °F 10.4 °F 51% 29.95 in 10.0 mi East 8.1 mph - N/A   Overcast
4:14 AM 26.6 °F 19.1 °F 10.4 °F 51% 29.96 in 10.0 mi East 6.9 mph - N/A   Overcast
4:34 AM 26.6 °F 20.0 °F 10.4 °F 51% 29.95 in 10.0 mi East 5.8 mph - N/A   Overcast
4:54 AM 26.6 °F 19.1 °F 10.4 °F 51% 29.96 in 10.0 mi East 6.9 mph - N/A   Overcast
5:14 AM 26.6 °F 18.2 °F 10.4 °F 51% 29.96 in 10.0 mi East 8.1 mph - N/A   Overcast
5:34 AM 26.6 °F 19.1 °F 10.4 °F 51% 29.96 in 10.0 mi East 6.9 mph - N/A   Overcast
5:54 AM 26.6 °F 18.2 °F 12.2 °F 55% 29.96 in 10.0 mi East 8.1 mph - N/A   Overcast
6:14 AM 26.6 °F 18.2 °F 12.2 °F 55% 29.96 in 10.0 mi East 8.1 mph - N/A   Overcast
6:34 AM 26.6 °F 20.0 °F 12.2 °F 55% 29.96 in 10.0 mi East 5.8 mph - N/A   Overcast
6:45 AM 26.6 °F 19.1 °F 12.2 °F 55% 29.96 in 10.0 mi East 6.9 mph - N/A   Overcast
6:54 AM 26.6 °F 19.1 °F 12.2 °F 55% 29.96 in 10.0 mi East 6.9 mph - N/A   Overcast
7:45 AM 26.6 °F 16.8 °F 14.0 °F 59% 29.96 in 5.0 mi ESE 10.4 mph 19.6 mph N/A Snow Light Snow
8:45 AM 24.8 °F 14.0 °F 19.4 °F 80% 29.98 in 1.8 mi ESE 11.5 mph - N/A Snow Light Snow
9:45 AM 24.8 °F 14.6 °F 21.2 °F 86% 29.97 in 1.0 mi East 10.4 mph 16.1 mph N/A Snow Light Snow
10:45 AM 24.8 °F 13.4 °F 19.4 °F 80% 29.98 in 1.8 mi East 12.7 mph 17.3 mph N/A Snow Light Snow
11:45 AM 24.8 °F 12.4 °F 19.4 °F 80% 29.96 in 4.0 mi East 15.0 mph - N/A Snow Light Snow
12:45 PM 24.8 °F 14.6 °F 19.4 °F 80% 29.96 in 4.0 mi East 10.4 mph 17.3 mph N/A Snow Light Snow
1:45 PM 24.8 °F 14.0 °F 21.2 °F 86% 29.95 in 10.0 mi East 11.5 mph 17.3 mph N/A   Overcast
2:45 PM 26.6 °F 16.2 °F 21.2 °F 80% 29.95 in 10.0 mi East 11.5 mph 17.3 mph N/A   Overcast
3:50 PM 26.6 °F 17.5 °F 21.2 °F 80% 29.97 in 10.0 mi East 9.2 mph - N/A   Overcast
4:50 PM 26.6 °F 17.5 °F 21.2 °F 80% 29.97 in 10.0 mi ESE 9.2 mph - N/A   Overcast
5:45 PM 26.6 °F 16.8 °F 21.2 °F 80% 29.97 in 5.0 mi East 10.4 mph - N/A   Overcast
6:45 PM 26.6 °F 19.1 °F 21.2 °F 80% 29.99 in 3.0 mi East 6.9 mph - N/A Snow Light Snow
7:55 PM 26.6 °F 19.1 °F 23.0 °F 86% 30.00 in 7.0 mi East 6.9 mph - N/A Snow Light Snow
8:45 PM 24.8 °F 17.9 °F 24.8 °F 100% 30.03 in 0.8 mi East 5.8 mph - N/A Snow Snow
9:14 PM 24.8 °F 19.1 °F 24.8 °F 100% 30.03 in 1.2 mi ENE 4.6 mph - N/A Snow Light Snow
9:34 PM 24.8 °F 17.9 °F 24.8 °F 100% 30.02 in 2.5 mi East 5.8 mph - N/A Snow Light Snow
9:54 PM 24.8 °F 17.9 °F 24.8 °F 100% 30.02 in 1.5 mi East 5.8 mph - N/A Snow Light Snow
10:14 PM 24.8 °F 17.9 °F 24.8 °F 100% 30.02 in 1.2 mi East 5.8 mph - N/A Snow Light Snow
10:34 PM 24.8 °F 16.9 °F 24.8 °F 100% 30.02 in 5.0 mi East 6.9 mph - N/A Snow Light Snow
10:54 PM 24.8 °F 17.9 °F 24.8 °F 100% 30.02 in 0.8 mi East 5.8 mph - N/A Snow Snow
11:14 PM 24.8 °F 19.1 °F 24.8 °F 100% 30.01 in 1.8 mi East 4.6 mph - N/A Snow Light Snow
11:34 PM 26.6 °F 19.1 °F 24.8 °F 93% 30.01 in 2.5 mi East 6.9 mph - N/A Snow Light Snow
11:54 PM 26.6 °F 20.0 °F 24.8 °F 93% 30.00 in 3.0 mi East 5.8 mph - N/A Snow Light Snow